Previsão horária em Abbotsford

Hoje, 12 Abril, Segunda-feira

Tempo Temperatura Precipitação Vento Pressão Humidade
00:00 +3°C° 0 mm 1 m/s 762 mmHg 79%
01:00 +3°C° 0 mm 1 m/s 762 mmHg 78%
02:00 +3°C° 0 mm 1 m/s 762 mmHg 77%
03:00 +3°C° 0 mm 1 m/s 762 mmHg 76%
04:00 +2°C° 0 mm 1 m/s 762 mmHg 75%
05:00 +4°C° 0 mm 1 m/s 762 mmHg 70%
06:00 +5°C° 0 mm 1 m/s 762 mmHg 66%
07:00 +6°C° 0 mm 1 m/s 762 mmHg 61%
08:00 +8°C° 0 mm 2 m/s 762 mmHg 53%
09:00 +10°C° 0 mm 2 m/s 762 mmHg 44%
10:00 +13°C° 0 mm 3 m/s 761 mmHg 35%
11:00 +13°C° 0 mm 3 m/s 761 mmHg 33%
12:00 +14°C° 0 mm 3 m/s 761 mmHg 31%
13:00 +15°C° 0 mm 4 m/s 761 mmHg 29%
14:00 +15°C° 0 mm 4 m/s 761 mmHg 30%
15:00 +15°C° 0 mm 4 m/s 761 mmHg 32%
16:00 +15°C° 0 mm 4 m/s 761 mmHg 33%
17:00 +12°C° 0 mm 3 m/s 761 mmHg 42%
18:00 +10°C° 0 mm 3 m/s 761 mmHg 51%
19:00 +8°C° 0 mm 2 m/s 761 mmHg 60%
20:00 +7°C° 0 mm 2 m/s 762 mmHg 62%
21:00 +6°C° 0 mm 2 m/s 762 mmHg 63%
22:00 +5°C° 0 mm 2 m/s 762 mmHg 65%
23:00 +5°C° 0 mm 2 m/s 762 mmHg 65%

Amanhã, 13 Abril, Terça-feira

Tempo Temperatura Precipitação Vento Pressão Humidade
00:00 +5°C° 0 mm 2 m/s 762 mmHg 64%
01:00 +4°C° 0 mm 2 m/s 762 mmHg 64%
02:00 +4°C° 0 mm 2 m/s 762 mmHg 64%
03:00 +4°C° 0 mm 2 m/s 763 mmHg 65%
04:00 +3°C° 0 mm 2 m/s 763 mmHg 65%
05:00 +4°C° 0 mm 2 m/s 763 mmHg 62%
06:00 +6°C° 0 mm 1 m/s 763 mmHg 60%
07:00 +8°C° 0 mm 1 m/s 762 mmHg 57%
08:00 +10°C° 0 mm 1 m/s 762 mmHg 49%
09:00 +13°C° 0 mm 1 m/s 762 mmHg 42%
10:00 +15°C° 0 mm 1 m/s 762 mmHg 34%
11:00 +16°C° 0 mm 1 m/s 761 mmHg 32%
12:00 +17°C° 0 mm 2 m/s 761 mmHg 30%
13:00 +18°C° 0 mm 2 m/s 761 mmHg 28%
14:00 +18°C° 0 mm 2 m/s 760 mmHg 30%
15:00 +18°C° 0 mm 2 m/s 760 mmHg 32%
16:00 +17°C° 0 mm 2 m/s 760 mmHg 34%
17:00 +15°C° 0 mm 1 m/s 760 mmHg 45%
18:00 +12°C° 0 mm 1 m/s 760 mmHg 57%
19:00 +10°C° 0 mm 1 m/s 760 mmHg 68%
20:00 +9°C° 0 mm 1 m/s 760 mmHg 68%
21:00 +8°C° 0 mm 1 m/s 760 mmHg 69%
22:00 +8°C° 0 mm 1 m/s 760 mmHg 69%
23:00 +7°C° 0 mm 1 m/s 760 mmHg 69%

Depois de amanhã, 14 Abril, Quarta-feira

Tempo Temperatura Precipitação Vento Pressão Humidade
00:00 +7°C° 0 mm 1 m/s 760 mmHg 69%
01:00 +7°C° 0 mm 1 m/s 760 mmHg 68%
02:00 +6°C° 0 mm 1 m/s 760 mmHg 68%
03:00 +6°C° 0 mm 1 m/s 760 mmHg 68%
04:00 +6°C° 0 mm 1 m/s 760 mmHg 68%
05:00 +7°C° 0 mm 1 m/s 760 mmHg 65%
06:00 +8°C° 0 mm 1 m/s 760 mmHg 62%
07:00 +9°C° 0 mm 1 m/s 760 mmHg 58%
08:00 +11°C° 0 mm 1 m/s 760 mmHg 52%
09:00 +14°C° 0 mm 1 m/s 759 mmHg 45%
10:00 +16°C° 0 mm 1 m/s 759 mmHg 38%
11:00 +18°C° 0 mm 1 m/s 759 mmHg 37%
12:00 +19°C° 0 mm 1 m/s 758 mmHg 36%
13:00 +19°C° 0 mm 2 m/s 758 mmHg 35%
14:00 +19°C° 0 mm 2 m/s 757 mmHg 37%
15:00 +19°C° 0 mm 2 m/s 757 mmHg 40%
16:00 +18°C° 0 mm 2 m/s 757 mmHg 42%
17:00 +16°C° 0 mm 1 m/s 757 mmHg 53%
18:00 +13°C° 0 mm 1 m/s 757 mmHg 64%
19:00 +10°C° 0 mm 0 m/s 757 mmHg 75%
20:00 +10°C° 0 mm 1 m/s 757 mmHg 75%
21:00 +10°C° 0 mm 1 m/s 757 mmHg 75%
22:00 +9°C° 0 mm 1 m/s 757 mmHg 75%
23:00 +9°C° 0 mm 1 m/s 757 mmHg 76%

15 Abril, Quinta-feira

Tempo Temperatura Precipitação Vento Pressão Humidade
00:00 +9°C° 0 mm 1 m/s 757 mmHg 76%
01:00 +9°C° 0 mm 1 m/s 757 mmHg 76%
02:00 +8°C° 0 mm 1 m/s 757 mmHg 76%
03:00 +8°C° 0 mm 1 m/s 758 mmHg 75%
04:00 +8°C° 0 mm 1 m/s 758 mmHg 75%
05:00 +9°C° 0 mm 1 m/s 758 mmHg 71%
06:00 +10°C° 0 mm 1 m/s 757 mmHg 68%
07:00 +10°C° 0 mm 0 m/s 757 mmHg 64%
08:00 +13°C° 0 mm 0 m/s 757 mmHg 57%
09:00 +16°C° 0 mm 1 m/s 757 mmHg 50%
10:00 +19°C° 0 mm 1 m/s 757 mmHg 44%
11:00 +20°C° 0 mm 1 m/s 757 mmHg 42%
12:00 +21°C° 0 mm 1 m/s 756 mmHg 41%
13:00 +21°C° 0 mm 2 m/s 756 mmHg 40%
14:00 +21°C° 0 mm 2 m/s 756 mmHg 42%
15:00 +21°C° 0 mm 2 m/s 755 mmHg 44%
16:00 +20°C° 0 mm 2 m/s 755 mmHg 46%
17:00 +19°C° 0 mm 1 m/s 755 mmHg 57%
18:00 +16°C° 0 mm 1 m/s 755 mmHg 67%
19:00 +12°C° 0 mm 0 m/s 755 mmHg 78%
20:00 +13°C° 0 mm 1 m/s 755 mmHg 78%
21:00 +12°C° 0 mm 1 m/s 756 mmHg 79%
22:00 +12°C° 0 mm 1 m/s 756 mmHg 79%
23:00 +11°C° 0 mm 1 m/s 756 mmHg 78%

16 Abril, Sexta-feira

Tempo Temperatura Precipitação Vento Pressão Humidade
00:00 +11°C° 0 mm 1 m/s 756 mmHg 78%
01:00 +11°C° 0 mm 1 m/s 756 mmHg 77%
02:00 +11°C° 0 mm 1 m/s 757 mmHg 77%
03:00 +10°C° 0 mm 1 m/s 757 mmHg 76%
04:00 +10°C° 0 mm 1 m/s 757 mmHg 76%
05:00 +11°C° 0 mm 1 m/s 757 mmHg 72%
06:00 +12°C° 0 mm 1 m/s 757 mmHg 68%
07:00 +14°C° 0 mm 1 m/s 757 mmHg 64%
08:00 +16°C° 0 mm 1 m/s 757 mmHg 57%
09:00 +19°C° 0 mm 1 m/s 757 mmHg 50%
10:00 +22°C° 0 mm 1 m/s 757 mmHg 43%
11:00 +23°C° 0 mm 1 m/s 757 mmHg 41%
12:00 +23°C° 0 mm 1 m/s 757 mmHg 40%
13:00 +24°C° 0 mm 2 m/s 757 mmHg 39%
14:00 +24°C° 0 mm 2 m/s 756 mmHg 40%
15:00 +23°C° 0 mm 2 m/s 756 mmHg 42%
16:00 +23°C° 0 mm 2 m/s 756 mmHg 44%
17:00 +21°C° 0 mm 1 m/s 756 mmHg 54%
18:00 +19°C° 0 mm 1 m/s 756 mmHg 65%
19:00 +14°C° 0 mm 0 m/s 756 mmHg 75%
20:00 +14°C° 0 mm 0 m/s 756 mmHg 76%
21:00 +14°C° 0 mm 1 m/s 757 mmHg 77%
22:00 +13°C° 0 mm 1 m/s 757 mmHg 78%
23:00 +13°C° 0 mm 1 m/s 757 mmHg 78%

17 Abril, Sábado

Tempo Temperatura Precipitação Vento Pressão Humidade
00:00 +13°C° 0 mm 1 m/s 757 mmHg 79%
01:00 +12°C° 0 mm 1 m/s 758 mmHg 80%
02:00 +12°C° 0 mm 1 m/s 758 mmHg 80%
03:00 +12°C° 0 mm 1 m/s 758 mmHg 80%
04:00 +12°C° 0 mm 1 m/s 758 mmHg 80%
05:00 +13°C° 0 mm 1 m/s 758 mmHg 76%
06:00 +14°C° 0 mm 1 m/s 758 mmHg 72%
07:00 +15°C° 0 mm 1 m/s 758 mmHg 68%
08:00 +18°C° 0 mm 1 m/s 758 mmHg 61%
09:00 +20°C° 0 mm 1 m/s 758 mmHg 54%
10:00 +22°C° 0 mm 1 m/s 757 mmHg 47%
11:00 +23°C° 0 mm 1 m/s 757 mmHg 45%
12:00 +24°C° 0 mm 1 m/s 757 mmHg 43%
13:00 +25°C° 0 mm 2 m/s 757 mmHg 42%
14:00 +24°C° 0 mm 2 m/s 757 mmHg 43%
15:00 +24°C° 0 mm 2 m/s 756 mmHg 45%
16:00 +24°C° 0 mm 1 m/s 756 mmHg 46%
17:00 +22°C° 0 mm 1 m/s 756 mmHg 56%
18:00 +19°C° 0 mm 1 m/s 756 mmHg 65%
19:00 +15°C° 0 mm 0 m/s 756 mmHg 75%
20:00 +15°C° 0 mm 0 m/s 756 mmHg 77%
21:00 +15°C° 0 mm 1 m/s 757 mmHg 79%
22:00 +14°C° 0 mm 1 m/s 757 mmHg 80%
23:00 +14°C° 0 mm 1 m/s 757 mmHg 82%
Mostrar mais